This demonstration page uses our WeatherBlox Daily Observations layout. Learn more.

Left ArrowRight Arrow

Hourly Observations for September 6, 2019

Temp ( °F °C ) Dew Point ( °F °C ) Humidity (%) Winds ( mph kmh ) Pressure ( in mb ) Visibility ( mi km ) Precip ( " mm )
12:53 am 00:53 Clear 76 24.4 59 15 56 56 NW 5 7 29.88 1012 10 16 0.00 0.00
1:53 am 01:53 Clear 75 23.9 59 15 58 58 VRB 3 6 29.87 1012 10 16 0.00 0.00
2:53 am 02:53 Clear 72 22.2 59 15 64 64 VRB 3 6 29.87 1012 10 16 0.00 0.00
3:53 am 03:53 Clear 71 21.7 60 15.6 68 68 NW 5 7 29.86 1011 10 16 0.00 0.00
4:53 am 04:53 Clear 70 21.1 60 15.6 71 71 NNW 5 7 29.87 1012 10 16 0.00 0.00
5:53 am 05:53 Clear 69 20.6 60 15.6 73 73 Calm 29.88 1012 10 16 0.00 0.00
6:53 am 06:53 Clear 67 19.4 60 15.6 79 79 Calm 29.90 1013 10 16 0.00 0.00
7:53 am 07:53 Sunny 67 19.4 60 15.6 79 79 Calm 29.92 1013 10 16 0.00 0.00
8:53 am 08:53 Sunny 70 21.1 60 15.6 71 71 VRB 7 11 29.93 1014 10 16 0.00 0.00
9:53 am 09:53 Sunny 76 24.4 61 16.1 60 60 NNW 6 9 29.93 1014 10 16 0.00 0.00
10:53 am 10:53 Sunny 80 26.7 61 16.1 52 52 VRB 6 9 29.93 1014 10 16 0.00 0.00
11:53 am 11:53 Sunny 84 28.9 61 16.1 46 46 NW 8 13 29.92 1013 10 16 0.00 0.00
1:53 pm 13:53 Sunny 90 32.2 58 14.4 34 34 N 8 13 29.90 1012 10 16 0.00 0.00
2:53 pm 14:53 Sunny 91 32.8 51 10.6 26 26 NNW 13 20 29.88 1012 10 16 0.00 0.00
3:53 pm 15:53 Sunny 93 33.9 45 7.2 19 19 NW 15 24 29.86 1011 10 16 0.00 0.00
4:53 pm 16:53 Sunny 93 33.9 43 6.1 18 18 N 10 17 29.86 1011 10 16 0.00 0.00
5:53 pm 17:53 Sunny 92 33.3 53 11.7 27 27 NW 13 20 29.87 1012 10 16 0.00 0.00
6:53 pm 18:53 Sunny 90 32.2 56 13.3 32 32 NNW 8 13 29.88 1012 10 16 0.00 0.00
7:53 pm 19:53 Sunny 85 29.4 57 13.9 39 39 NW 6 9 29.88 1012 10 16 0.00 0.00
8:53 pm 20:53 Clear 82 27.8 58 14.4 44 44 WNW 3 6 29.89 1012 10 16 0.00 0.00
9:53 pm 21:53 Clear 76 24.4 61 16.1 60 60 Calm 29.91 1013 10 16 0.00 0.00
10:53 pm 22:53 Clear 75 23.9 61 16.1 62 62 Calm 29.92 1013 10 16 0.00 0.00

Powered by AerisWeather